Vertical_Velocity
0 -5 -2 -4 -1 -0 -0 -0 -0 -2 -6 -0 -1 -0 1 2 -1 -0 0 -0 -1 -2 -1 -0 -0 -1 -1 -1 -1 -1 -1 -1 -3 -4 -7 -0 -4 -2 -0 1 -0 1 2 -0
-6 -3 -5 -1 0 1 0 0 -3 -4 -1 -1 -1 -1 0 -0 1 1 1 0 -1 -1 -3 -3 -3 -2 -2 -3 -2 -1 -1 0 2 0 1 -2 -2 1 -4 0 -1 -2 0 1
-5 -8 -1 -1 1 2 -0 -1 -1 -2 -1 -2 0 -1 2 1 0 1 1 1 2 -0 -2 -2 -2 -3 -2 -3 -4 -4 -5 -5 -4 -4 -4 -3 -2 -4 -3 -1 0 0 -3 1
-3 -5 0 1 -0 -3 1 -2 0 1 -1 -4 -3 -8 0 1 1 0 -0 -0 0 1 2 2 1 1 -2 -2 -1 -1 -3 -4 -3 -4 -3 -2 -4 -5 -3 -4 -6 -2 -2 -1
-15 0 0 0 -6 -2 -10 -0 0 -0 0 -1 -2 -2 -4 -1 -0 -1 -0 -1 -1 -2 -2 -2 -2 -2 -1 -3 -5 -4 -5 -6 -5 -6 -5 -4 -3 -1 -3 -4 -2 -1 -2 -0
-4 1 -2 -6 -1 -1 -0 -1 -2 -1 -1 1 -4 -3 -5 -2 -4 1 0 -0 -1 -1 -1 -2 -3 -2 -2 -3 -0 -2 0 1 -0 -1 -1 -1 -0 -3 -5 -4 -3 -4 -2 -3
-0 -1 -0 -2 1 -0 -2 -3 -4 -5 -3 -6 -0 1 -11 -1 -1 -2 -2 -0 -0 -0 -2 -0 -2 -2 0 -1 -2 -2 -1 -2 -0 -1 -0 0 2 1 1 -0 -1 0 -4 -4
-2 -6 -1 0 -6 -8 -1 -7 -7 -3 -2 -5 0 -3 -14 -1 -0 -0 -0 -2 -2 -1 -2 -3 -1 0 -2 -2 -2 -0 -4 -3 -2 -1 -2 -1 1 0 -1 0 1 0 0 -1
-2 -4 -1 -0 -0 -8 -0 -1 -6 -2 -1 -1 -4 -7 0 1 1 2 -0 -1 -1 -1 -1 -1 0 -2 -3 -3 -1 -4 -3 -2 -2 -2 -1 0 2 -1 -0 -1 2 -0 2 0
-2 -3 -0 1 -2 -1 -6 -6 -10 -4 -2 -1 -4 -2 -9 -0 -2 0 2 -0 -1 -2 -2 -2 -2 -2 -1 -1 1 -0 1 -1 -1 -1 2 1 3 2 1 1 1 3 4 2
-2 -6 -4 -1 -1 -4 -1 0 -2 -6 -3 -2 -2 -14 -5 -3 -2 -3 -1 -1 -1 -1 -1 -0 -1 -1 -0 1 -0 -0 -2 -2 -1 1 -0 3 -1 -1 1 0 2 5 4 3
-3 -4 -1 -6 0 0 -1 -2 -3 -6 -5 -1 -1 -25 0 -0 -0 -2 -0 -0 -1 0 0 -1 -1 -1 0 -3 -2 -4 0 2 -2 -3 1 1 5 -3 -3 1 2 4 2 5
-5 -1 -2 -9 -9 -2 0 0 -1 -1 -2 -6 -0 -21 0 0 1 1 -2 0 1 -1 0 0 -0 -2 -1 -2 -2 -2 1 -2 -1 -4 4 -1 -3 -2 -2 3 4 2 3 -0
-3 -0 -6 -8 -9 -4 0 1 0 -3 0 -7 -9 -13 -2 0 -1 1 1 1 -1 -1 -1 0 -1 -1 0 -3 -1 0 1 -1 -1 -1 2 -2 -6 -1 -1 3 1 0 -3 -0
-5 -0 -1 -0 0 0 -1 -1 0 1 -8 1 -20 -0 -6 -4 -4 -6 -3 1 1 -2 0 -1 -1 0 -0 -1 -2 2 0 -0 -1 0 3 -1 0 1 -0 2 5 2 -0 3
-1 1 -1 -2 -1 1 0 -0 0 -0 -2 1 1 -13 1 0 4 3 0 -0 -0 -0 -1 -1 -1 0 -2 -2 -1 0 0 -3 2 -1 -0 1 0 2 -1 1 -0 1 1 -5
-3 -3 -2 -4 0 -1 -4 -7 -2 -1 -0 -3 -0 -13 -0 1 1 1 0 -1 -1 -0 -1 -1 -0 -1 -1 -3 0 -1 -1 2 1 0 3 -1 -0 -1 -2 0 4 3 2 4
-2 -1 -1 -1 -0 -1 -18 -0 -2 -2 -2 0 1 -0 -0 -0 2 -2 1 -3 -1 -1 -1 -1 -1 -1 -0 -2 1 -0 -0 0 1 -1 2 -1 -2 -1 2 1 -2 1 1 2
-2 -2 -1 -3 -1 -9 -4 -0 -3 -4 -9 -1 -1 2 1 2 0 1 1 1 -0 -1 -2 -1 -1 0 -0 -1 0 -0 -0 1 1 -2 -2 -4 -2 -2 -0 -3 -0 1 1 -1
-0 -1 -6 1 0 -2 -9 -1 0 -2 -10 -1 -3 -0 -3 1 1 -4 -2 1 -1 -1 -1 -2 1 0 -1 -0 -1 0 -0 0 -3 1 -3 -2 -3 -1 -4 -1 -1 -1 1 -0
0 0 -2 0 -1 -7 -4 -1 0 -12 -23 -1 -1 -3 -2 -2 -5 -2 -1 -0 2 -1 -1 -1 -0 0 -0 -1 -1 0 -0 -1 -1 5 1 -3 -1 -0 -2 2 1 -0 -1 4
-6 -5 -1 2 3 -9 -1 1 -5 -11 -0 -1 -1 -2 -2 -1 -0 1 -1 -1 -2 -2 -2 -1 -0 -1 -0 -1 -0 1 -1 -1 2 2 -2 -2 -2 -1 -0 -0 0 2 -1 -4
-3 -12 -11 -11 -15 -2 1 -0 1 -1 -2 -3 -1 -2 -1 -2 -2 -0 -4 -1 -1 -1 -1 -1 2 -1 -2 -1 -0 1 -1 1 2 2 -1 -1 -1 -1 -2 -2 -4 -5 -4 -5
-1 -0 -1 -2 -5 -2 -2 -2 -0 -0 -2 -1 0 -1 -1 -4 -1 -1 1 -1 -3 -2 -2 1 0 0 1 -0 -2 -2 -0 2 1 -2 1 -4 -2 -2 -2 -1 -4 -5 -4 -1
-7 -1 -2 -4 -2 -2 -3 -5 2 1 -0 -1 -1 -1 -3 0 -0 -0 -2 -0 -2 -2 -0 -1 -0 0 1 -1 -1 -0 -0 -0 1 3 -0 -1 -1 -2 -0 -0 -4 -2 -3 -2
-3 -6 -4 -10 -3 -2 -0 0 1 -1 -1 -0 -1 -2 -1 2 -2 -3 -1 0 -1 -2 -1 -2 -1 -0 0 -0 -0 -0 1 3 -1 -1 -1 -2 -0 -1 -2 -1 -1 -4 -2 -2
Height
1510 1517 1518 1514 1515 1514 1515 1518 1522 1521 1512 1513 1511 1509 1514 1513 1511 1512 1513 1514 1514 1513 1512 1511 1508 1505 1502 1499 1496 1492 1489 1486 1482 1478 1475 1475 1474 1472 1470 1467 1465 1464 1463 1462
1514 1518 1508 1510 1514 1516 1518 1519 1521 1515 1509 1512 1510 1508 1514 1514 1514 1513 1513 1514 1515 1514 1511 1509 1506 1503 1500 1497 1494 1490 1487 1483 1478 1474 1470 1466 1462 1462 1461 1458 1455 1454 1452 1451
1513 1509 1504 1508 1511 1515 1517 1519 1517 1515 1509 1508 1508 1509 1513 1515 1515 1514 1514 1514 1514 1512 1510 1507 1505 1501 1498 1494 1490 1486 1482 1479 1475 1470 1465 1462 1457 1453 1450 1449 1448 1445 1442 1441
1507 1501 1503 1508 1510 1513 1518 1509 1509 1510 1513 1521 1511 1520 1507 1511 1514 1514 1514 1513 1512 1510 1509 1507 1503 1499 1495 1492 1488 1483 1479 1475 1471 1466 1461 1456 1451 1445 1442 1437 1434 1432 1432 1430
1501 1498 1502 1505 1506 1506 1512 1507 1508 1509 1513 1517 1518 1527 1507 1515 1515 1513 1513 1512 1511 1510 1508 1505 1501 1497 1494 1489 1483 1480 1475 1470 1466 1461 1457 1452 1446 1440 1433 1429 1426 1422 1420 1419
1496 1495 1496 1498 1498 1500 1504 1507 1513 1521 1524 1526 1514 1519 1506 1515 1505 1510 1511 1510 1509 1508 1505 1503 1501 1496 1491 1487 1482 1478 1473 1468 1463 1458 1453 1448 1442 1436 1430 1425 1420 1415 1412 1409
1496 1493 1491 1493 1499 1500 1505 1515 1532 1531 1532 1520 1511 1518 1500 1503 1504 1505 1507 1509 1509 1508 1505 1501 1497 1494 1491 1486 1481 1477 1471 1466 1460 1454 1449 1443 1438 1433 1426 1420 1415 1411 1407 1404
1503 1498 1490 1490 1495 1498 1505 1510 1524 1519 1525 1516 1511 1510 1499 1502 1504 1505 1505 1506 1507 1506 1503 1500 1497 1494 1491 1486 1481 1475 1469 1463 1457 1451 1445 1440 1435 1429 1423 1417 1412 1407 1403 1400
1502 1497 1488 1487 1488 1493 1504 1509 1505 1509 1516 1526 1504 1502 1503 1503 1504 1505 1504 1504 1506 1505 1502 1499 1497 1494 1490 1486 1481 1474 1469 1463 1457 1450 1443 1438 1432 1426 1420 1414 1409 1404 1399 1394
1486 1496 1491 1490 1489 1493 1493 1498 1515 1523 1517 1511 1502 1502 1492 1503 1499 1502 1503 1502 1503 1503 1501 1499 1496 1494 1491 1486 1481 1476 1470 1464 1456 1449 1443 1437 1431 1425 1418 1412 1406 1401 1395 1390
1484 1490 1496 1492 1493 1495 1499 1501 1505 1509 1513 1516 1507 1507 1494 1493 1490 1492 1497 1500 1501 1502 1500 1498 1495 1493 1490 1485 1480 1475 1470 1464 1457 1450 1443 1436 1430 1424 1418 1412 1406 1400 1395 1389
1482 1490 1501 1493 1492 1492 1492 1495 1500 1519 1505 1509 1511 1491 1486 1489 1489 1492 1497 1499 1500 1500 1498 1496 1495 1493 1489 1485 1480 1475 1470 1466 1460 1454 1445 1438 1432 1426 1421 1413 1408 1401 1396 1391
1481 1492 1507 1498 1498 1493 1491 1493 1495 1501 1508 1496 1522 1490 1487 1489 1491 1492 1494 1497 1498 1498 1497 1496 1494 1492 1488 1485 1481 1477 1472 1468 1464 1457 1450 1443 1435 1431 1425 1419 1412 1405 1399 1394
1477 1487 1493 1488 1487 1491 1496 1492 1494 1498 1511 1488 1481 1479 1483 1487 1488 1488 1489 1492 1494 1495 1496 1494 1493 1491 1488 1485 1482 1478 1474 1471 1466 1460 1454 1448 1443 1436 1431 1424 1418 1412 1407 1400
1480 1483 1499 1493 1488 1490 1487 1490 1493 1498 1483 1496 1470 1480 1466 1476 1478 1477 1483 1489 1489 1492 1493 1493 1492 1491 1489 1486 1484 1480 1477 1474 1469 1463 1457 1452 1448 1443 1438 1431 1426 1420 1414 1408
1483 1494 1504 1505 1491 1491 1492 1491 1490 1484 1484 1483 1483 1474 1468 1466 1469 1474 1478 1483 1487 1489 1491 1492 1492 1490 1489 1488 1486 1483 1479 1476 1472 1467 1462 1458 1454 1449 1443 1438 1432 1427 1421 1416
1485 1494 1501 1499 1494 1493 1493 1487 1479 1481 1477 1474 1476 1462 1465 1468 1469 1471 1477 1482 1485 1487 1489 1490 1491 1490 1489 1489 1487 1484 1482 1479 1475 1470 1466 1462 1458 1454 1448 1443 1438 1432 1426 1422
1486 1489 1492 1494 1496 1496 1473 1469 1468 1470 1465 1465 1461 1462 1465 1465 1469 1473 1477 1479 1483 1485 1487 1489 1490 1490 1489 1490 1488 1487 1484 1481 1477 1473 1469 1466 1462 1458 1454 1449 1443 1437 1432 1427
1476 1486 1493 1490 1494 1479 1467 1463 1467 1468 1458 1454 1457 1463 1466 1468 1471 1476 1477 1479 1481 1483 1485 1487 1489 1489 1489 1490 1489 1489 1486 1483 1480 1476 1472 1470 1466 1462 1458 1453 1448 1443 1439 1434
1477 1480 1485 1494 1493 1490 1468 1460 1460 1460 1469 1453 1455 1460 1465 1468 1471 1471 1473 1477 1479 1482 1485 1487 1488 1489 1489 1490 1490 1490 1488 1485 1481 1479 1477 1474 1471 1468 1463 1459 1454 1450 1446 1442
1481 1488 1480 1483 1482 1472 1456 1456 1458 1472 1463 1451 1453 1455 1461 1464 1462 1463 1469 1474 1478 1481 1484 1486 1488 1489 1489 1490 1491 1490 1489 1486 1484 1483 1481 1478 1476 1472 1468 1465 1461 1457 1453 1449
1466 1473 1483 1477 1477 1471 1449 1456 1460 1452 1449 1450 1453 1455 1458 1460 1461 1462 1467 1472 1475 1479 1482 1485 1487 1489 1490 1490 1492 1491 1489 1487 1487 1486 1484 1481 1479 1476 1473 1469 1466 1462 1458 1455
1458 1455 1462 1458 1455 1445 1444 1442 1443 1445 1447 1448 1450 1452 1455 1458 1460 1462 1466 1471 1474 1478 1481 1485 1487 1488 1489 1491 1491 1491 1490 1490 1489 1488 1486 1484 1483 1480 1476 1472 1469 1466 1463 1459
1448 1447 1451 1449 1441 1441 1442 1442 1442 1443 1444 1446 1447 1449 1452 1455 1458 1462 1465 1469 1473 1478 1481 1484 1486 1488 1489 1491 1491 1492 1491 1492 1491 1489 1487 1486 1485 1482 1480 1477 1473 1470 1467 1465
1444 1444 1445 1445 1439 1440 1435 1435 1437 1440 1441 1443 1445 1446 1449 1454 1456 1460 1464 1467 1472 1476 1480 1483 1486 1488 1489 1491 1492 1493 1492 1493 1492 1491 1489 1488 1486 1484 1482 1479 1476 1474 1473 1471
1435 1436 1439 1438 1430 1431 1431 1431 1432 1435 1437 1440 1441 1444 1447 1451 1454 1458 1463 1467 1471 1475 1478 1482 1485 1487 1489 1490 1492 1493 1494 1494 1494 1493 1491 1489 1488 1486 1485 1484 1481 1479 1478 1476